Location: Bobigny
(48.9098°N, 2.4501°E)
Time: 15:52:36
(UTC+00:00)

Daily predictions for brighter satellites

Satellite Brightness Start Highest point End
(mag) Time Altitude Azimuth Time Altitude Azimuth Time Altitude Azimuth
Cosmos 1842 Rocket 3.7 16:43:11 10° S 16:47:35 58° E 16:52:00 10° NNE
Okean-O 3.3 16:43:45 10° SE 16:47:44 34° ENE 16:51:46 10° N
Cosmos 1340 Rocket 3.0 16:44:42 10° SSW 16:48:42 81° W 16:52:49 10° N
Cosmos-2242 4.4 16:46:12 10° SW 16:50:15 41° WNW 16:54:19 10° N
Cosmos 1437 2.7 16:49:11 10° NNW 16:52:16 84° W 16:55:21 10° S
Cosmos 1633 4.2 16:51:30 10° NNE 16:53:47 16° ENE 16:56:04 10° ESE
BREEZE-M DEB (TANK) 2.5 16:48:56 10° W 16:54:03 87° NNW 16:56:25 10° E
Cosmos 2219 3.2 16:49:13 10° NNW 16:54:50 64° ENE 17:00:24 10° SE
CZ-4B R/B 3.6 16:52:44 10° N 16:55:32 25° WNW 16:58:22 10° SW
Cosmos 1869 4.4 16:54:18 10° SE 16:57:31 24° E 17:00:44 10° NE
TELKOM 3 2.8 16:56:21 10° W 16:58:35 72° SSW 17:00:41 10° ESE
Cosmos 2369 Rocket 3.9 16:54:39 10° WSW 16:59:24 27° NW 17:04:10 10° NNE
USA 215 3.7 16:53:41 10° E 16:59:53 47° N 17:06:04 10° WNW
Cosmos 2233 Rocket 4.0 16:54:11 10° N 17:00:32 72° E 17:06:48 10° SSE
CZ-4 R/B 2.6 16:57:56 10° ESE 17:01:06 22° ENE 17:04:15 10° NNE
Elektron 3 4.3 17:01:09 10° WSW 17:04:30 56° NW 17:07:22 10° NE
USA 229 DEB 4.2 16:59:08 10° S 17:05:05 37° ESE 17:11:16 10° NE
USA 229 4.2 16:59:16 10° S 17:05:11 37° ESE 17:11:21 10° NE
Cosmos 1743 Rocket 3.6 17:01:24 10° N 17:05:46 87° W 17:10:08 10° S
Cosmos 1805 Rocket 3.9 17:01:55 10° N 17:06:03 40° ENE 17:10:10 10° SE
Envisat 3.3 17:04:51 10° SE 17:09:40 45° ENE 17:14:30 10° N
CSL-04 Rocket 4.4 17:06:36 10° ESE 17:11:08 29° ENE 17:15:39 10° N
NOSS 3-1 (C) 4.0 17:06:22 10° S 17:11:18 34° ESE 17:16:25 12° NE
AQUARIUS 4.1 17:06:53 10° SSE 17:11:22 81° ENE 17:15:53 10° NNW
Cosmos 1455 3.8 17:09:01 10° SW 17:12:32 37° WNW 17:16:03 10° N
Cosmos 2227 Rocket 2.2 17:10:13 10° NNW 17:15:51 59° ENE 17:21:26 10° SE
YAOGAN 6 3.4 17:13:01 10° SE 17:15:59 26° ENE 17:18:58 10° N
Cosmos 2297 Rocket 2.2 17:10:31 10° NNW 17:16:10 64° ENE 17:21:46 10° SE
Okean O Rocket 3.9 17:13:59 10° SSW 17:17:47 28° W 17:21:35 10° NW
Cosmos 2344 3.7 17:10:56 10° SW 17:18:26 79° NW 17:26:58 10° NE
CORIOLIS 4.2 17:13:53 10° SSE 17:19:18 87° ENE 17:24:47 10° NNW
FengYun 1-2 T 4.5 17:15:16 10° SE 17:20:30 46° ENE 17:25:44 10° N
Cosmos 1464 Rocket 4.2 17:16:15 10° N 17:22:08 44° ENE 17:27:58 10° SE
SeaSat 1 2.4 17:19:46 10° SE 17:24:42 84° ENE 17:29:40 10° NNW
Meteor 2-10 Rocket 4.4 17:24:48 10° SSW 17:29:39 50° WNW 17:34:36 10° N
Cosmos 1500 Rocket 4.4 17:26:25 10° NNW 17:30:43 53° W 17:34:57 10° S
H-2A R/B 3.2 17:27:16 10° S 17:31:06 65° W 17:34:56 10° NNW
Meteor 2-20 4.4 17:28:13 10° S 17:34:16 70° E 17:40:24 10° NNE
Cosmos 1943 Rocket 4.5 17:31:11 10° WNW 17:34:47 17° NW 17:38:25 10° N
Geosat 4.0 17:31:08 10° NNE 17:36:11 70° ESE 17:41:12 10° SSW
Cosmos 1633 Rocket 3.5 17:32:08 10° N 17:36:15 37° ENE 17:40:21 10° SE
Meteor 2-2 Rocket 4.2 17:33:14 10° S 17:39:06 81° E 17:44:53 10° NNE
Genesis I 3.2 17:35:15 10° SW 17:39:17 85° NW 17:42:05 19° NE
Cosmos 2263 Rocket 3.6 17:36:27 10° N 17:40:17 18° NE 17:41:12 18° NE
Cosmos 2082 3.7 17:37:22 10° NNW 17:42:57 60° ENE 17:48:31 10° SE
SMAP 4.2 17:38:54 10° S 17:43:22 47° W 17:47:54 10° NNW
COSMO-SKYMED 1 2.8 17:39:43 10° NNE 17:43:57 47° E 17:48:07 10° S
Cosmos 1680 Rocket 4.4 17:40:19 10° SSE 17:44:36 27° E 17:45:41 25° E
Cosmos 1862 3.5 17:42:19 10° N 17:46:11 46° ENE 17:50:01 10° SSE
Cosmos 1666 Rocket 3.6 17:42:33 10° N 17:46:54 56° ENE 17:51:10 10° SSE
ERBS 3.7 17:44:43 10° S 17:47:20 23° SE 17:47:20 23° SE
Cosmos 1607 4.2 17:41:56 10° NW 17:48:07 73° WSW 17:54:22 10° SSE
Sich 1 2.9 17:46:16 10° N 17:50:37 82° ENE 17:54:59 10° SSE
CENTAUR R/B 4.2 17:45:45 10° NW 17:51:37 26° N 17:56:08 16° NE
Ariane Rocket 3.7 17:51:23 27° E 17:52:42 30° ENE 17:57:07 10° N
Cosmos 2278 4.5 17:48:55 10° SSE 17:53:44 30° ESE 17:54:50 28° E
Cosmos 1328 Rocket 4.2 17:50:22 10° SSE 17:54:18 32° E 17:54:25 32° E
Cosmos 1697 Rocket 3.2 17:49:52 10° S 17:55:00 37° ESE 17:57:08 27° ENE
NOSS 8 (A) 4.3 17:52:52 10° SW 17:55:59 70° NW 17:56:54 40° NNE
Cosmos 1867 4.1 17:52:25 10° WSW 17:57:47 56° NW 18:02:11 15° NNE
H-2A R/B 4.0 18:00:03 14° NNE 18:00:03 14° NNE 18:01:25 10° NNE
ATLAS 5 CENTAUR R/B 2.7 17:52:44 10° NW 17:58:26 68° SW 18:04:58 10° SSE
Cosmos 1151 Rocket 3.8 17:56:19 10° SSE 17:59:23 31° ESE 17:59:23 31° ESE
Cosmos 773 Rocket 4.4 17:58:35 10° SW 18:03:43 64° WNW 18:08:55 10° NNE
BREEZE-M DEB (TANK) 3.6 18:01:10 10° SW 18:05:30 25° SSE 18:06:06 24° SE
SKYMED 3 4.4 18:03:42 10° NNE 18:08:04 82° ESE 18:12:25 10° SSW
ATLAS 3B R/B 4.1 18:03:24 10° NW 18:08:28 22° N 18:11:27 17° NE
Cosmos 923 Rocket 4.1 18:03:35 10° S 18:08:39 53° ESE 18:10:51 31° NE
Cosmos 1624 Rocket 4.3 18:07:47 10° NNW 18:12:55 44° ENE 18:13:48 40° E
Cosmos 2056 Rocket 3.8 18:08:03 10° NNW 18:12:55 42° ENE 18:13:20 41° ENE
GEOS 3 Rocket 4.1 18:09:56 19° NNE 18:13:35 59° NW 18:18:44 10° WSW
Cosmos 1356 Rocket 3.7 18:09:47 10° SSW 18:13:54 66° WNW 18:18:08 10° N
YAOGAN 1 2.4 18:09:42 10° SSE 18:14:02 86° ENE 18:18:23 10° NNW
Cosmos 1470 Rocket 3.6 18:13:18 10° N 18:17:44 54° ENE 18:17:57 54° E
Cosmos 2034 Rocket 3.9 18:12:01 10° N 18:18:24 80° E 18:24:47 10° SSE
Cosmos 2346 Rocket 4.5 18:13:26 10° S 18:19:30 57° E 18:25:33 10° NNE
CZ-3B R/B 4.4 18:18:06 10° WNW 18:19:34 23° NNW 18:19:34 23° NNW
Cosmos 1538 Rocket 4.5 18:15:41 10° SW 18:20:53 61° WNW 18:25:50 12° NNE
Lacrosse 4 Rocket 1.5 18:17:28 10° SSW 18:21:00 52° SSE 18:21:00 52° SSE
USA 116 4.0 18:21:50 26° NNE 18:24:26 79° ESE 18:29:24 10° S
Meteor 2-11 Rocket 4.3 18:20:02 10° N 18:26:11 87° E 18:32:20 10° S
NOAA 11 4.0 18:21:25 10° SSE 18:26:50 76° ENE 18:32:17 10° NNW
Cosmos 1633 3.7 18:25:24 10° NNW 18:28:53 43° W 18:32:21 10° SSW
Cosmos 1656 3.7 18:24:11 10° SSW 18:29:45 77° WNW 18:33:00 26° NNE
SKYMED 2 4.1 18:27:49 10° N 18:32:06 58° WNW 18:36:22 10° SSW
CSL-04 Debris 4.4 18:26:39 10° S 18:32:08 70° WSW 18:37:38 10° NNW
CZ-2D R/B 4.0 18:34:29 43° N 18:34:29 43° N 18:37:12 10° NNW
CZ-4 R/B 2.6 18:31:54 10° S 18:35:53 43° W 18:39:50 10° NNW
DMSP B5D1-3 4.4 18:37:40 57° NE 18:38:34 70° ESE 18:43:42 10° S
Cosmos 724 4.1 18:32:52 10° NW 18:38:46 89° NE 18:40:39 46° SE
Cosmos 1634 Rocket 4.0 18:34:33 10° N 18:40:39 54° ENE 18:40:43 54° ENE
MOS 1 4.4 18:41:34 51° NE 18:41:34 51° NE 18:46:29 10° N
Tsikada Rocket 3.9 18:35:12 10° S 18:41:31 71° E 18:47:55 10° NNE
USA 215 3.1 18:40:26 47° ESE 18:42:32 81° NNE 18:49:05 10° NW
Cosmos 1816 Rocket 4.4 18:42:31 10° S 18:48:52 83° E 18:55:17 10° N
CSL-04 Rocket 4.5 18:46:03 10° S 18:51:14 49° W 18:56:25 10° NNW
Cosmos 1939 Rocket 3.6 18:52:15 50° NW 18:52:15 50° NW 18:55:31 10° NNW
NOSS 2-3 (E) 4.3 18:48:42 10° SSW 18:51:48 46° SSW 18:51:48 46° SSW
USA 229 DEB 4.0 18:49:11 10° WSW 18:55:44 60° NW 18:58:48 34° NNE
USA 229 4.0 18:49:17 10° WSW 18:55:50 61° NW 18:58:52 34° NNE
Cosmos 1980 Rocket 2.8 18:52:54 10° SSW 18:56:39 41° S 18:56:39 41° S
Cosmos 2227 Rocket 4.3 18:54:56 10° NW 18:59:31 26° WSW 19:04:05 10° SSW
Cosmos 2297 Rocket 4.4 18:55:20 10° NW 18:59:44 24° WSW 19:04:08 10° SSW
NOSS 3-1 (A) 3.4 18:55:03 10° SW 19:00:42 79° NW 19:01:51 60° NNE
NOSS 3-1 (C) 3.8 18:56:09 10° WSW 19:01:46 57° NW 19:03:50 40° NNE
Cosmos 1371 Rocket 4.1 18:57:52 10° NNW 19:03:04 70° WSW 19:03:21 68° SW
Cosmos 2369 4.2 19:11:54 10° SW 19:17:28 56° WNW 19:18:22 50° NNW
Cosmos 2263 Rocket 3.2 19:19:37 10° NNW 19:22:54 36° NNW 19:22:54 36° NNW
Cosmos 1680 Rocket 4.3 19:21:22 10° SW 19:26:04 48° WNW 19:26:04 48° WNW
Ariane Rocket 4.0 19:31:36 43° W 19:31:36 43° W 19:36:23 10° NNW
H-2A R/B 4.1 19:40:41 20° NNW 19:40:41 20° NNW 19:42:12 10° NNW
Cosmos 2278 4.5 19:32:03 10° SW 19:36:49 49° W 19:36:49 49° W
Cosmos 1697 Rocket 3.7 19:33:32 10° SW 19:38:55 43° NW 19:38:55 43° NW
CENTAUR R/B 3.8 19:37:27 10° NW 19:43:18 37° N 19:43:18 37° N
USA 238 DEB 4.5 19:40:12 10° NW 19:45:20 45° N 19:45:20 45° N
USA 238 4.5 19:40:18 10° NW 19:45:26 45° N 19:45:26 45° N
ATLAS 3B R/B 4.1 19:55:10 10° NW 19:58:41 26° N 19:58:41 26° N
